Location: Buckland
(65.9785°N, 161.1281°W)
Time: 19:03:37
(UTC+00:00)

Transit 4A - Pass Details

Date: 11 October 2022
Orbit: 871 x 972 km, 66.8° (Epoch: 01 December)

Event Time Altitude Azimuth Distance (km) Brightness Sun altitude
Exits shadow 11:50:17 76° 69° (ENE) 919 7.8 -29.6°
Drops below altitude 10° 11:55:44 10° 95° (E) 2,537 10.4 -29.3°
Sets 11:58:12 0° 97° (E) 3,469 11.1 -29.2°
